TimeCDT,TemperatureF,Dew PointF,Humidity,Sea Level PressureIn,VisibilityMPH,Wind Direction,Wind SpeedMPH,Gust SpeedMPH,PrecipitationIn,Events,Conditions,WindDirDegrees,DateUTC
12:15 AM,50.5,41.9,72,30.19,10.0,Calm,Calm,-,N/A,,Overcast,0,2013-05-10 05:15:00
12:35 AM,52.0,41.4,67,30.20,10.0,NNW,5.8,-,N/A,,Overcast,330,2013-05-10 05:35:00
1:15 AM,50.0,42.8,76,30.19,10.0,ENE,4.6,-,N/A,,Mostly Cloudy,70,2013-05-10 06:15:00
1:35 AM,46.8,41.9,83,30.19,10.0,NNE,6.9,-,N/A,,Scattered Clouds,30,2013-05-10 06:35:00
1:55 AM,46.0,41.5,84,30.19,10.0,ENE,4.6,-,N/A,,Scattered Clouds,60,2013-05-10 06:55:00
2:15 AM,45.1,42.3,90,30.17,10.0,Calm,Calm,-,N/A,,Clear,0,2013-05-10 07:15:00
2:35 AM,43.2,40.6,91,30.17,10.0,NW,4.6,-,N/A,,Clear,310,2013-05-10 07:35:00
2:55 AM,43.2,40.5,90,30.17,10.0,North,3.5,-,N/A,,Clear,350,2013-05-10 07:55:00
3:15 AM,43.2,41.0,92,30.17,10.0,North,5.8,-,N/A,,Clear,10,2013-05-10 08:15:00
3:55 AM,40.8,39.0,93,30.16,7.0,Calm,Calm,-,N/A,,Clear,0,2013-05-10 08:55:00
4:15 AM,40.5,39.0,95,30.17,5.0,Calm,Calm,-,N/A,,Clear,0,2013-05-10 09:15:00
4:35 AM,41.2,39.6,94,30.17,7.0,Calm,Calm,-,N/A,,Clear,0,2013-05-10 09:35:00
4:55 AM,39.9,38.1,93,30.17,7.0,West,4.6,-,N/A,,Mostly Cloudy,280,2013-05-10 09:55:00
5:15 AM,41.9,40.1,93,30.17,7.0,WNW,4.6,-,N/A,,Overcast,290,2013-05-10 10:15:00
5:35 AM,42.6,41.0,94,30.17,7.0,WNW,3.5,-,N/A,,Overcast,300,2013-05-10 10:35:00
5:55 AM,42.6,40.8,93,30.17,7.0,West,3.5,-,N/A,,Mostly Cloudy,280,2013-05-10 10:55:00
6:15 AM,41.0,39.2,93,30.17,7.0,WNW,3.5,-,N/A,,Scattered Clouds,290,2013-05-10 11:15:00
6:35 AM,39.9,38.3,94,30.17,7.0,WNW,6.9,-,N/A,,Clear,300,2013-05-10 11:35:00
7:15 AM,44.2,43.0,95,30.18,7.0,NNW,6.9,-,N/A,,Overcast,330,2013-05-10 12:15:00
7:35 AM,44.1,42.3,93,30.19,5.0,NW,4.6,-,N/A,,Scattered Clouds,320,2013-05-10 12:35:00
8:15 AM,47.5,44.6,90,30.19,10.0,NW,4.6,-,N/A,,Clear,320,2013-05-10 13:15:00
8:35 AM,49.8,45.0,83,30.19,10.0,NNW,5.8,-,N/A,,Clear,340,2013-05-10 13:35:00
8:55 AM,50.9,45.3,81,30.19,10.0,NNW,5.8,-,N/A,,Clear,340,2013-05-10 13:55:00
9:15 AM,52.5,45.3,76,30.19,10.0,NNW,4.6,-,N/A,,Clear,340,2013-05-10 14:15:00
9:35 AM,53.4,43.5,69,30.19,10.0,NNW,3.5,-,N/A,,Clear,330,2013-05-10 14:35:00
9:55 AM,55.4,43.2,63,30.19,10.0,NW,3.5,-,N/A,,Clear,320,2013-05-10 14:55:00
10:15 AM,55.9,42.6,61,30.20,10.0,North,5.8,-,N/A,,Clear,350,2013-05-10 15:15:00
10:35 AM,57.7,41.9,56,30.20,10.0,Calm,Calm,-,N/A,,Clear,0,2013-05-10 15:35:00
10:55 AM,59.0,40.3,50,30.20,10.0,West,3.5,-,N/A,,Clear,280,2013-05-10 15:55:00
11:15 AM,59.4,39.7,48,30.20,10.0,North,4.6,-,N/A,,Clear,350,2013-05-10 16:15:00
11:35 AM,61.3,38.1,42,30.20,10.0,NW,6.9,-,N/A,,Clear,310,2013-05-10 16:35:00
12:15 PM,62.4,37.6,40,30.20,10.0,North,10.4,-,N/A,,Scattered Clouds,10,2013-05-10 17:15:00
12:35 PM,63.5,36.3,36,30.20,10.0,NNW,6.9,-,N/A,,Scattered Clouds,340,2013-05-10 17:35:00
12:55 PM,65.8,34.9,32,30.19,10.0,NW,4.6,17.3,N/A,,Scattered Clouds,310,2013-05-10 17:55:00
1:15 PM,63.9,35.2,35,30.19,10.0,NNW,5.8,-,N/A,,Mostly Cloudy,340,2013-05-10 18:15:00
1:35 PM,64.4,34.2,32,30.19,10.0,NNW,12.7,18.4,N/A,,Mostly Cloudy,330,2013-05-10 18:35:00
1:55 PM,67.1,33.8,29,30.19,10.0,NW,12.7,18.4,N/A,,Mostly Cloudy,310,2013-05-10 18:55:00
2:15 PM,66.9,32.7,28,30.18,10.0,NW,11.5,18.4,N/A,,Scattered Clouds,310,2013-05-10 19:15:00
2:35 PM,68.5,31.5,25,30.18,10.0,NNW,13.8,-,N/A,,Scattered Clouds,330,2013-05-10 19:35:00
2:55 PM,68.9,30.7,24,30.18,10.0,NW,8.1,16.1,N/A,,Clear,320,2013-05-10 19:55:00
3:15 PM,68.4,28.0,22,30.17,10.0,NNW,16.1,19.6,N/A,,Clear,340,2013-05-10 20:15:00
3:35 PM,68.7,30.0,24,30.17,10.0,North,11.5,-,N/A,,Scattered Clouds,360,2013-05-10 20:35:00
3:55 PM,67.6,32.0,27,30.16,10.0,NNE,17.3,20.7,N/A,,Mostly Cloudy,20,2013-05-10 20:55:00
4:15 PM,68.7,34.0,28,30.16,10.0,NNE,12.7,17.3,N/A,,Mostly Cloudy,20,2013-05-10 21:15:00
4:35 PM,58.3,44.6,60,30.17,10.0,NNE,17.3,20.7,N/A,Rain,Light Rain,30,2013-05-10 21:35:00
4:55 PM,61.7,39.7,44,30.17,10.0,NE,4.6,-,N/A,,Overcast,50,2013-05-10 21:55:00
5:15 PM,64.0,35.4,35,30.16,10.0,ENE,3.5,-,N/A,,Mostly Cloudy,70,2013-05-10 22:15:00
5:35 PM,65.7,34.9,32,30.16,10.0,Calm,Calm,-,N/A,,Scattered Clouds,0,2013-05-10 22:35:00
5:55 PM,66.4,34.2,30,30.16,10.0,North,6.9,-,N/A,,Scattered Clouds,360,2013-05-10 22:55:00
6:15 PM,65.8,34.5,31,30.16,10.0,NE,12.7,17.3,N/A,,Scattered Clouds,40,2013-05-10 23:15:00
6:35 PM,69.1,34.9,28,30.16,10.0,East,11.5,-,N/A,,Mostly Cloudy,100,2013-05-10 23:35:00
6:55 PM,68.4,32.9,27,30.16,10.0,NE,6.9,-,N/A,,Scattered Clouds,50,2013-05-10 23:55:00
7:15 PM,67.5,31.8,27,30.16,10.0,NNE,5.8,-,N/A,,Scattered Clouds,20,2013-05-11 00:15:00
7:35 PM,68.2,22.1,17,30.16,10.0,North,12.7,-,N/A,,Scattered Clouds,10,2013-05-11 00:35:00
7:55 PM,66.2,33.4,30,30.17,10.0,NNE,5.8,-,N/A,,Scattered Clouds,20,2013-05-11 00:55:00
8:15 PM,64.8,34.3,32,30.18,10.0,NE,4.6,-,N/A,,Clear,50,2013-05-11 01:15:00
8:35 PM,61.3,36.5,40,30.19,10.0,NE,6.9,-,N/A,,Clear,50,2013-05-11 01:35:00
8:55 PM,60.8,34.5,37,30.20,10.0,NNE,11.5,-,N/A,,Clear,20,2013-05-11 01:55:00
9:15 PM,58.1,34.5,41,30.22,10.0,NNE,8.1,-,N/A,,Clear,30,2013-05-11 02:15:00
9:35 PM,55.0,34.2,45,30.22,10.0,NNE,6.9,-,N/A,,Clear,20,2013-05-11 02:35:00
9:55 PM,55.4,33.6,44,30.23,10.0,North,9.2,-,N/A,,Clear,360,2013-05-11 02:55:00
10:15 PM,54.7,34.0,46,30.24,10.0,North,9.2,-,N/A,,Clear,10,2013-05-11 03:15:00
10:35 PM,56.1,32.4,41,30.27,10.0,North,19.6,23.0,N/A,,Clear,10,2013-05-11 03:35:00
10:55 PM,54.5,36.5,51,30.28,10.0,NNE,16.1,24.2,N/A,,Clear,30,2013-05-11 03:55:00
11:15 PM,53.6,37.8,55,30.28,10.0,NNE,13.8,-,N/A,,Scattered Clouds,30,2013-05-11 04:15:00
11:35 PM,53.6,38.3,56,30.28,10.0,NE,11.5,-,N/A,,Mostly Cloudy,50,2013-05-11 04:35:00
11:55 PM,51.8,38.3,60,30.28,10.0,NE,10.4,-,N/A,,Scattered Clouds,50,2013-05-11 04:55:00